Location: Olivenhain
(33.0462°N, 117.2348°W)
Time: 19:50:43
(UTC+00:00)

COSMOS 2428 - Pass Details

Date: 27 June 2022
Orbit: 844 x 857 km, 71.0° (Epoch: 09 August)

Event Time Altitude Azimuth Distance (km) Brightness Sun altitude
Rises 11:57:50 0° 325° (NW) 3,423 5.9 -8.8°
Reaches altitude 10° 12:00:36 10° 314° (NW) 2,485 5.0 -8.3°
Maximum altitude 12:05:20 28° 258° (WSW) 1,565 3.6 -7.5°
Drops below altitude 10° 12:10:05 10° 201° (SSW) 2,478 4.7 -6.6°
Sets 12:12:51 0° 190° (S) 3,411 5.4 -6.2°
